| time (UTC) | temp F | wind direction | speed MPH | gust MPH | rain 1hr in | rain 24hr in | rain mn in | humidity % | barometer mb |
| 20260902212146 | 65 | 112 | 5.0 | 10.0 | 0.05 | 0.42 | 0.42 | 94 | 1009.0 |
| 20260902211246 | 65 | 134 | 8.0 | 13.0 | 0.12 | 0.42 | 0.42 | 94 | 1008.8 |
| 20260902210345 | 65 | 137 | 8.0 | 14.0 | 0.21 | 0.42 | 0.42 | 94 | 1008.6 |
| 20260902205445 | 65 | 135 | 9.0 | 14.0 | 0.25 | 0.42 | 0.42 | 94 | 1008.7 |
| 20260902204546 | 65 | 134 | 8.0 | 13.0 | 0.30 | 0.41 | 0.41 | 93 | 1009.0 |
| 20260902203645 | 65 | 139 | 3.0 | 8.0 | 0.38 | 0.38 | 0.38 | 93 | 1009.2 |
| 20260902202745 | 65 | 128 | 6.0 | 10.0 | 0.37 | 0.37 | 0.37 | 92 | 1009.4 |
| 20260902201846 | 65 | 131 | 6.0 | 10.0 | 0.36 | 0.36 | 0.36 | 91 | 1009.4 |
| 20260902200946 | 66 | 126 | 5.0 | 9.0 | 0.27 | 0.27 | 0.28 | 89 | 1009.4 |
| 20260902195145 | 67 | 41 | 4.0 | 12.0 | 0.17 | 0.17 | 0.17 | 88 | 1009.7 |
| 20260902194245 | 69 | 15 | 8.0 | 14.0 | 0.03 | 0.03 | 0.05 | 82 | 1010.1 |
| 20260902193345 | 69 | 126 | 5.0 | 12.0 | 0.00 | 0.00 | 0.00 | 79 | 1009.9 |
| 20260902192446 | 69 | 124 | 7.0 | 14.0 | 0.00 | 0.00 | 0.00 | 78 | 1009.2 |
| 20260902190645 | 70 | 109 | 6.0 | 15.0 | 0.00 | 0.00 | 0.00 | 77 | 1009.2 |
| 20260902185746 | 71 | 105 | 6.0 | 15.0 | 0.00 | 0.00 | 0.00 | 74 | 1009.3 |
| 20260902184845 | 71 | 121 | 7.0 | 13.0 | 0.00 | 0.00 | 0.00 | 75 | 1009.4 |
| 20260902183945 | 71 | 97 | 7.0 | 14.0 | 0.00 | 0.00 | 0.00 | 73 | 1009.2 |
| 20260902182146 | 71 | 128 | 7.0 | 12.0 | 0.00 | 0.00 | 0.00 | 66 | 1009.4 |
| 20260902181246 | 71 | 132 | 7.0 | 12.0 | 0.00 | 0.00 | 0.00 | 66 | 1009.8 |
| 20260902180345 | 71 | 128 | 3.0 | 9.0 | 0.00 | 0.00 | 0.00 | 67 | 1009.9 |
| 20260902174546 | 71 | 122 | 6.0 | 12.0 | 0.00 | 0.00 | 0.00 | 59 | 1010.1 |
| 20260902172745 | 71 | 130 | 7.0 | 14.0 | 0.00 | 0.00 | 0.00 | 64 | 1010.1 |
| 20260902170045 | 71 | 98 | 3.0 | 7.0 | 0.00 | 0.01 | 0.00 | 81 | 1009.8 |
| 20260902165146 | 71 | 92 | 3.0 | 7.0 | 0.00 | 0.01 | 0.00 | 83 | 1009.7 |
| 20260902164245 | 71 | 80 | 3.0 | 7.0 | 0.00 | 0.01 | 0.00 | 82 | 1009.7 |
| 20260902163345 | 71 | 86 | 4.0 | 8.0 | 0.00 | 0.01 | 0.00 | 82 | 1009.9 |
| 20260902161545 | 71 | 78 | 4.0 | 10.0 | 0.00 | 0.05 | 0.00 | 81 | 1010.0 |
| 20260902160645 | 71 | 90 | 6.0 | 11.0 | 0.00 | 0.06 | 0.00 | 81 | 1009.9 |
| 20260902155745 | 71 | 83 | 5.0 | 12.0 | 0.00 | 0.07 | 0.00 | 81 | 1010.0 |
| 20260902154846 | 71 | 96 | 3.0 | 10.0 | 0.00 | 0.08 | 0.00 | 81 | 1010.1 |
| 20260902153045 | 70 | 84 | 6.0 | 13.0 | 0.00 | 0.08 | 0.00 | 81 | 1010.1 |
| 20260902152146 | 70 | 100 | 5.0 | 12.0 | 0.00 | 0.08 | 0.00 | 83 | 1010.2 |
| 20260902150345 | 69 | 44 | 7.0 | 15.0 | 0.00 | 0.09 | 0.00 | 84 | 1010.3 |
| 20260902145445 | 69 | 45 | 8.0 | 15.0 | 0.00 | 0.11 | 0.00 | 84 | 1010.4 |
| 20260902144545 | 69 | 61 | 5.0 | 11.0 | 0.00 | 0.14 | 0.00 | 84 | 1010.1 |
| 20260902143645 | 69 | 69 | 5.0 | 11.0 | 0.00 | 0.15 | 0.00 | 84 | 1010.0 |
| 20260902142746 | 69 | 71 | 4.0 | 10.0 | 0.00 | 0.16 | 0.00 | 83 | 1010.2 |
| 20260902140046 | 68 | 81 | 5.0 | 11.0 | 0.00 | 0.16 | 0.00 | 84 | 1010.2 |
| 20260902134245 | 67 | 83 | 4.0 | 9.0 | 0.00 | 0.18 | 0.00 | 86 | 1009.9 |
| 20260902133345 | 67 | 70 | 3.0 | 8.0 | 0.00 | 0.18 | 0.00 | 86 | 1009.9 |
| 20260902132446 | 67 | 78 | 4.0 | 11.0 | 0.00 | 0.18 | 0.00 | 86 | 1010.0 |
| 20260902131545 | 66 | 90 | 5.0 | 12.0 | 0.00 | 0.18 | 0.00 | 86 | 1009.9 |
| 20260902125746 | 66 | 90 | 5.0 | 13.0 | 0.00 | 0.18 | 0.00 | 87 | 1009.8 |
| 20260902124846 | 66 | 86 | 6.0 | 15.0 | 0.00 | 0.18 | 0.00 | 87 | 1009.7 |
| 20260902123945 | 66 | 89 | 7.0 | 17.0 | 0.00 | 0.18 | 0.00 | 87 | 1009.6 |
| 20260902123046 | 65 | 89 | 7.0 | 13.0 | 0.00 | 0.18 | 0.00 | 87 | 1009.5 |
| 20260902122145 | 65 | 90 | 7.0 | 16.0 | 0.00 | 0.18 | 0.00 | 87 | 1009.5 |
| 20260902121245 | 65 | 97 | 5.0 | 11.0 | 0.00 | 0.19 | 0.00 | 88 | 1009.6 |
| 20260902120346 | 65 | 83 | 6.0 | 12.0 | 0.00 | 0.19 | 0.00 | 89 | 1009.6 |
| 20260902115445 | 65 | 82 | 4.0 | 11.0 | 0.00 | 0.19 | 0.00 | 88 | 1009.7 |
| 20260902113645 | 65 | 69 | 6.0 | 12.0 | 0.00 | 0.19 | 0.00 | 89 | 1009.7 |
| 20260902111845 | 65 | 64 | 5.0 | 11.0 | 0.00 | 0.19 | 0.00 | 89 | 1009.5 |
| 20260902110947 | 65 | 70 | 4.0 | 10.0 | 0.00 | 0.19 | 0.00 | 88 | 1009.5 |
| 20260902105146 | 65 | 81 | 5.0 | 10.0 | 0.00 | 0.19 | 0.00 | 88 | 1009.6 |
| 20260902104245 | 64 | 81 | 4.0 | 10.0 | 0.00 | 0.19 | 0.00 | 88 | 1009.4 |
| 20260902103345 | 64 | 86 | 5.0 | 11.0 | 0.00 | 0.19 | 0.00 | 88 | 1009.3 |
| 20260902102445 | 64 | 70 | 5.0 | 12.0 | 0.00 | 0.19 | 0.00 | 87 | 1009.2 |
| 20260902095746 | 64 | 73 | 6.0 | 14.0 | 0.00 | 0.19 | 0.00 | 90 | 1009.0 |
| 20260902093945 | 64 | 82 | 5.0 | 12.0 | 0.00 | 0.19 | 0.00 | 91 | 1009.0 |
| 20260902093045 | 64 | 79 | 5.0 | 11.0 | 0.00 | 0.19 | 0.00 | 91 | 1008.8 |
| 20260902092145 | 64 | 93 | 6.0 | 13.0 | 0.00 | 0.19 | 0.00 | 91 | 1008.6 |
| 20260902091246 | 64 | 88 | 8.0 | 16.0 | 0.00 | 0.19 | 0.00 | 92 | 1008.5 |
| 20260902090345 | 64 | 86 | 7.0 | 15.0 | 0.00 | 0.20 | 0.00 | 93 | 1008.4 |
| 20260902085445 | 63 | 84 | 8.0 | 16.0 | 0.00 | 0.20 | 0.00 | 93 | 1008.5 |
| 20260902084545 | 63 | 88 | 8.0 | 16.0 | 0.00 | 0.20 | 0.00 | 94 | 1008.4 |
| 20260902082745 | 63 | 84 | 7.0 | 14.0 | 0.00 | 0.20 | 0.00 | 95 | 1008.5 |
| 20260902081845 | 63 | 90 | 7.0 | 14.0 | 0.00 | 0.20 | 0.00 | 95 | 1008.4 |
| 20260902080945 | 64 | 90 | 9.0 | 17.0 | 0.00 | 0.20 | 0.00 | 94 | 1008.2 |
| 20260902080045 | 64 | 90 | 9.0 | 19.0 | 0.00 | 0.22 | 0.00 | 95 | 1008.1 |
| 20260902075145 | 64 | 81 | 8.0 | 15.0 | 0.00 | 0.22 | 0.00 | 96 | 1008.2 |
| 20260902073345 | 64 | 82 | 6.0 | 13.0 | 0.00 | 0.23 | 0.00 | 96 | 1008.1 |
| 20260902072446 | 64 | 52 | 6.0 | 15.0 | 0.00 | 0.25 | 0.00 | 96 | 1008.0 |
| 20260902071545 | 64 | 68 | 7.0 | 15.0 | 0.00 | 0.28 | 0.00 | 96 | 1007.8 |
| 20260902065745 | 65 | 69 | 5.0 | 11.0 | 0.00 | 0.48 | 0.00 | 96 | 1007.8 |
| 20260902064845 | 65 | 72 | 5.0 | 15.0 | 0.00 | 0.55 | 0.00 | 95 | 1007.8 |
| 20260902063946 | 65 | 49 | 4.0 | 11.0 | 0.00 | 0.66 | 0.00 | 95 | 1008.1 |
| 20260902063045 | 65 | 47 | 5.0 | 10.0 | 0.00 | 0.71 | 0.00 | 95 | 1008.0 |
| 20260902062145 | 65 | 65 | 4.0 | 10.0 | 0.00 | 0.77 | 0.00 | 94 | 1008.0 |
| 20260902060345 | 65 | 60 | 4.0 | 9.0 | 0.00 | 0.94 | 0.00 | 94 | 1007.9 |
| 20260902055446 | 65 | 86 | 4.0 | 8.0 | 0.00 | 1.00 | 0.00 | 94 | 1007.9 |
| 20260902054546 | 65 | 82 | 5.0 | 14.0 | 0.00 | 1.06 | 0.00 | 94 | 1008.1 |
| 20260902052745 | 65 | 73 | 7.0 | 15.0 | 0.00 | 1.17 | 0.00 | 94 | 1007.7 |
| 20260902051845 | 65 | 83 | 5.0 | 11.0 | 0.00 | 1.23 | 0.00 | 94 | 1007.9 |
| 20260902050045 | 65 | 85 | 4.0 | 12.0 | 0.00 | 1.28 | 0.00 | 94 | 1007.9 |
| 20260902045145 | 65 | 90 | 6.0 | 11.0 | 0.00 | 1.28 | 0.00 | 93 | 1008.0 |
| 20260902044245 | 64 | 86 | 4.0 | 10.0 | 0.00 | 1.28 | 0.00 | 94 | 1007.9 |
| 20260902043345 | 64 | 77 | 5.0 | 13.0 | 0.00 | 1.28 | 0.00 | 93 | 1008.0 |
| 20260902042445 | 64 | 84 | 7.0 | 14.0 | 0.00 | 1.28 | 0.00 | 94 | 1007.7 |
| 20260902041545 | 64 | 85 | 7.0 | 14.0 | 0.00 | 1.28 | 0.00 | 94 | 1007.3 |
| 20260902040645 | 64 | 97 | 7.0 | 16.0 | 0.00 | 1.28 | 0.00 | 94 | 1007.3 |
| 20260902035745 | 64 | 94 | 8.0 | 16.0 | 0.00 | 1.28 | 0.00 | 95 | 1007.3 |
| 20260902033945 | 64 | 90 | 8.0 | 16.0 | 0.00 | 1.28 | 0.00 | 95 | 1007.2 |
| 20260902033045 | 64 | 93 | 7.0 | 16.0 | 0.00 | 1.28 | 0.00 | 95 | 1007.3 |
| 20260902032145 | 64 | 85 | 5.0 | 14.0 | 0.00 | 1.28 | 0.00 | 95 | 1007.5 |
| 20260902031246 | 64 | 88 | 6.0 | 14.0 | 0.00 | 1.28 | 0.00 | 94 | 1007.5 |
| 20260902030345 | 64 | 84 | 8.0 | 20.0 | 0.00 | 1.28 | 0.00 | 94 | 1007.4 |
| 20260902025445 | 64 | 80 | 8.0 | 17.0 | 0.00 | 1.28 | 0.00 | 94 | 1007.2 |
| 20260902024545 | 64 | 84 | 8.0 | 18.0 | 0.00 | 1.28 | 0.00 | 94 | 1007.0 |
| 20260902022745 | 64 | 91 | 9.0 | 18.0 | 0.00 | 1.28 | 0.00 | 93 | 1006.8 |
| 20260902021845 | 64 | 84 | 7.0 | 17.0 | 0.00 | 1.28 | 0.00 | 93 | 1006.7 |
| 20260902020945 | 64 | 88 | 5.0 | 15.0 | 0.00 | 1.28 | 0.00 | 93 | 1006.8 |
| 20260902020045 | 64 | 82 | 7.0 | 15.0 | 0.00 | 1.28 | 0.00 | 93 | 1006.6 |
| 20260902015145 | 64 | 94 | 7.0 | 16.0 | 0.00 | 1.28 | 0.00 | 93 | 1006.4 |
| 20260902014245 | 64 | 81 | 6.0 | 15.0 | 0.00 | 1.28 | 0.00 | 93 | 1006.3 |
| 20260902013345 | 65 | 78 | 9.0 | 20.0 | 0.00 | 1.28 | 0.00 | 93 | 1006.2 |
| 20260902012445 | 65 | 88 | 8.0 | 17.0 | 0.00 | 1.28 | 0.00 | 93 | 1005.8 |
| 20260902011545 | 65 | 80 | 7.0 | 16.0 | 0.00 | 1.28 | 0.00 | 93 | 1005.7 |
| 20260902010645 | 65 | 83 | 8.0 | 16.0 | 0.00 | 1.28 | 0.00 | 93 | 1005.6 |
| 20260902003945 | 66 | 83 | 9.0 | 21.0 | 0.00 | 1.28 | 0.00 | 93 | 1005.3 |
| 20260902003045 | 66 | 77 | 8.0 | 20.0 | 0.00 | 1.28 | 0.00 | 93 | 1005.4 |
| 20260902001245 | 67 | 87 | 10.0 | 18.0 | 0.00 | 1.28 | 0.00 | 93 | 1005.4 |
| 20260902000346 | 67 | 86 | 8.0 | 19.0 | 0.00 | 1.28 | 0.00 | 93 | 1005.3 |
| 20260901235445 | 68 | 118 | 5.0 | 12.0 | 0.00 | 1.28 | 1.28 | 94 | 1004.9 |
| 20260901234545 | 68 | 133 | 5.0 | 13.0 | 0.00 | 1.28 | 1.28 | 95 | 1005.0 |
| 20260901233645 | 69 | 93 | 4.0 | 11.0 | 0.00 | 1.28 | 1.28 | 95 | 1005.1 |
| 20260901232745 | 69 | 86 | 8.0 | 18.0 | 0.00 | 1.28 | 1.28 | 96 | 1005.0 |
| 20260901231845 | 69 | 84 | 10.0 | 18.0 | 0.00 | 1.28 | 1.28 | 96 | 1004.7 |
| 20260901230945 | 69 | 74 | 7.0 | 14.0 | 0.00 | 1.28 | 1.28 | 96 | 1004.9 |
| 20260901224245 | 70 | 87 | 6.0 | 13.0 | 0.00 | 1.28 | 1.28 | 96 | 1004.5 |
| 20260901223345 | 70 | 84 | 6.0 | 13.0 | 0.00 | 1.28 | 1.28 | 96 | 1004.5 |
| 20260901222445 | 70 | 80 | 5.0 | 13.0 | 0.00 | 1.28 | 1.28 | 96 | 1004.5 |
| 20260901221545 | 70 | 90 | 6.0 | 14.0 | 0.00 | 1.28 | 1.28 | 96 | 1004.5 |
| 20260901215745 | 71 | 90 | 7.0 | 14.0 | 0.00 | 1.28 | 1.28 | 96 | 1004.4 |
| 20260901214845 | 71 | 82 | 6.0 | 15.0 | 0.00 | 1.28 | 1.28 | 96 | 1004.4 |
| 20260901213945 | 71 | 90 | 5.0 | 12.0 | 0.00 | 1.28 | 1.28 | 95 | 1004.4 |
| 20260901213045 | 71 | 253 | 5.0 | 14.0 | 0.00 | 1.28 | 1.28 | 95 | 1004.6 |